Portada
METAR-TAF:

METAR-TAF

Aeropuertos :

Tafraoui, Argelia

Base aérea

latitud: 35-32-33N, longitud: 000-31-56W, altitud: 112 m

Observación

El informe se hizo hace 51 minutos, a las 02:00 UTC
Viento 2 kt del este-sureste
Temperatura 6°C
Humedad 93%
Presión 1021 hPa
Visibilidad 10 km o más
Escasas nubes a una altura de 2600 ft

METAR: DAOL 180200Z 12002KT 9999 FEW026 06/05 Q1021

Hora: 03:51 (02:51 UTC)


TAF: falta

Observaciones y pronósticos meteorológicos de más de 4000 aeropuertos (mensajes METAR y TAF).

Los puntos amarillos y rojos representan las estaciones disponibles.

Ponga el ratón en el punto deseado para ver el nombre de la estación.

Haga clic para ver las observaciones y los pronósticos meteorológicos.

Para cambiar el mapa : haga clic en los botones verdes con una cruz de color negro para hacer un zoom, en el botón verde con un guión para alejar o en las flechas verdes para mapas adyacentes.


METAR-TAF: